Satellite-Ground Cal/Val Region Overpasses Predictions

Prediction of Satellite NPP Overpassing Cal/Val Region: PacNW

Region Location: (Latitude: 10.00, Longitude: 139.50) to (Latitude: 22.70, Longitude: 165.60).

Table of predicted overpasses for the next 14.0 days since TLE Epoch: 4/20/2019
Interval Starting Time Starting Location Ending Time Ending Location
1 04/20/2019 03:29:42 ( 10.00, 147.24) 04/20/2019 03:33:18 ( 22.68, 144.23)
2 04/20/2019 16:01:35 ( 22.67, 144.47) 04/20/2019 16:05:10 ( 10.05, 141.47)
3 04/21/2019 03:10:41 ( 10.05, 151.99) 04/21/2019 03:14:16 ( 22.67, 148.99)
4 04/21/2019 15:42:34 ( 22.68, 149.23) 04/21/2019 15:46:10 ( 10.00, 146.21)
5 04/22/2019 02:51:40 ( 10.04, 156.75) 04/22/2019 02:55:15 ( 22.66, 153.74)
6 04/22/2019 15:23:32 ( 22.69, 153.99) 04/22/2019 15:27:08 ( 10.01, 150.97)
7 04/23/2019 02:32:38 ( 10.03, 161.50) 04/23/2019 02:36:13 ( 22.65, 158.50)
8 04/23/2019 15:04:31 ( 22.70, 158.75) 04/23/2019 15:08:07 ( 10.02, 155.73)
9 04/24/2019 02:14:26 ( 12.90, 165.60) 04/24/2019 02:17:12 ( 22.64, 163.26)
10 04/24/2019 03:55:07 ( 10.02, 140.89) 04/24/2019 03:56:48 ( 15.96, 139.51)
11 04/24/2019 14:45:31 ( 22.65, 163.49) 04/24/2019 14:49:05 ( 10.03, 160.49)
12 04/25/2019 03:36:05 ( 10.02, 145.64) 04/25/2019 03:39:40 ( 22.64, 142.64)
13 04/25/2019 14:29:38 ( 11.56, 165.59) 04/25/2019 14:30:04 ( 10.03, 165.24)
14 04/25/2019 16:07:59 ( 22.65, 142.87) 04/25/2019 16:11:34 ( 10.03, 139.87)
15 04/26/2019 03:17:04 ( 10.01, 150.40) 04/26/2019 03:20:40 ( 22.70, 147.38)
16 04/26/2019 15:48:58 ( 22.65, 147.63) 04/26/2019 15:52:33 ( 10.04, 144.62)
17 04/27/2019 02:58:02 ( 10.01, 155.16) 04/27/2019 03:01:38 ( 22.69, 152.14)
18 04/27/2019 15:29:56 ( 22.66, 152.38) 04/27/2019 15:33:31 ( 10.04, 149.38)
19 04/28/2019 02:39:01 ( 10.01, 159.91) 04/28/2019 02:42:37 ( 22.69, 156.90)
20 04/28/2019 15:10:55 ( 22.66, 157.14) 04/28/2019 15:14:30 ( 10.04, 154.14)
21 04/29/2019 02:19:59 ( 10.01, 164.67) 04/29/2019 02:23:35 ( 22.69, 161.65)
22 04/29/2019 14:51:53 ( 22.66, 161.90) 04/29/2019 14:55:28 ( 10.04, 158.89)
23 04/30/2019 03:42:28 ( 10.02, 144.05) 04/30/2019 03:46:04 ( 22.70, 141.03)
24 04/30/2019 14:34:06 ( 18.32, 165.59) 04/30/2019 14:36:27 ( 10.04, 163.65)
25 04/30/2019 16:14:22 ( 22.65, 141.28) 04/30/2019 16:16:26 ( 15.38, 139.51)
26 05/01/2019 03:23:26 ( 10.02, 148.81) 05/01/2019 03:27:01 ( 22.64, 145.80)
27 05/01/2019 15:55:20 ( 22.65, 146.03) 05/01/2019 15:58:55 ( 10.03, 143.03)
28 05/02/2019 03:04:25 ( 10.02, 153.56) 05/02/2019 03:08:00 ( 22.65, 150.56)
29 05/02/2019 15:36:19 ( 22.65, 150.79) 05/02/2019 15:39:54 ( 10.03, 147.79)
30 05/03/2019 02:45:24 ( 10.03, 158.32) 05/03/2019 02:48:59 ( 22.66, 155.31)


NCC Satellite Cal/Val Overpasses Prediction Service
